Location: Selkirk
(50.1500°N, 96.8830°W)
Time: 08:02:52
(UTC-05:00)

ISS - Visible Passes

Search period start: 16 July 2018 00:00
Search period end: 26 July 2018 00:00
Orbit: 402 x 408 km, 51.6° (Epoch: 16 July)

Date Brightness Start Highest point End Pass type
(mag) Time Alt. Az. Time Alt. Az. Time Alt. Az.
16 Jul -4.0 01:42:26 70° SSE 01:42:26 70° SSE 01:45:41 10° ENE visible
16 Jul -3.4 03:15:41 10° W 03:18:58 65° N 03:22:15 10° E visible
17 Jul -2.6 00:51:39 29° E 00:51:39 29° E 00:53:34 10° ENE visible
17 Jul -3.6 02:24:15 15° W 02:26:50 69° N 02:30:08 10° ENE visible
17 Jul -3.7 04:00:10 10° WNW 04:03:29 81° NNE 04:06:47 10° E visible
18 Jul -1.8 00:00:31 16° E 00:00:31 16° E 00:01:23 10° E visible
18 Jul -3.8 01:33:05 27° W 01:34:43 81° NNW 01:38:01 10° ENE visible
18 Jul -3.5 03:08:03 10° WNW 03:11:22 69° N 03:14:39 10° E visible
18 Jul -3.6 04:44:37 10° WNW 04:47:49 48° SSW 04:51:01 10° SE visible
18 Jul -2.4 23:03:56 10° SSW 23:07:08 19° SE 23:09:01 10° E visible
19 Jul -4.0 00:39:20 10° WSW 00:42:37 79° SSE 00:45:55 10° ENE visible
19 Jul -3.4 02:15:56 10° W 02:19:12 65° N 02:22:30 10° E visible
19 Jul -3.9 03:52:29 10° WNW 03:55:46 70° SSW 03:59:03 10° ESE visible
19 Jul -2.0 22:13:00 10° SSE 22:14:36 13° SE 22:16:12 10° ESE visible
19 Jul -3.8 23:47:19 10° SW 23:50:32 56° SSE 23:53:46 10° ENE visible
20 Jul -3.5 01:23:46 10° W 01:27:02 67° N 01:30:20 10° E visible
20 Jul -3.9 03:00:22 10° WNW 03:03:40 88° NNE 03:06:59 10° ESE visible
20 Jul -2.9 04:37:04 10° W 04:39:56 27° SW 04:42:46 10° SSE visible
20 Jul -3.3 22:55:27 10° SW 22:58:30 37° SSE 23:01:35 10° E visible
21 Jul -3.7 00:31:35 10° W 00:34:52 76° NNW 00:38:11 10° ENE visible
21 Jul -3.7 02:08:13 10° WNW 02:11:31 73° N 02:14:49 10° E visible
21 Jul -3.5 03:44:48 10° W 03:47:56 41° SSW 03:51:04 10° SE visible
21 Jul -2.7 22:03:48 10° SSW 22:06:31 24° SE 22:09:15 10° E visible
21 Jul -3.9 23:39:26 10° WSW 23:42:44 87° SSE 23:46:01 10° ENE visible
22 Jul -3.5 01:16:03 10° W 01:19:21 66° N 01:22:37 10° E visible
22 Jul -3.9 02:52:36 10° WNW 02:55:52 61° SSW 02:59:07 10° ESE visible
22 Jul -2.1 04:29:54 10° WSW 04:31:52 15° SW 04:33:49 10° S visible
22 Jul -3.9 22:47:21 10° WSW 22:50:36 64° SSE 22:53:51 10° ENE visible
23 Jul -3.5 00:23:52 10° W 00:27:08 65° N 00:30:25 10° E visible
23 Jul -3.8 02:00:26 10° WNW 02:03:24 69° W 02:03:24 69° W visible
23 Jul -3.6 23:31:39 10° W 23:34:56 72° N 23:38:13 10° ENE visible
24 Jul -3.8 01:08:16 10° WNW 01:11:34 77° N 01:12:03 60° ENE visible
24 Jul -3.8 22:39:26 10° WSW 22:42:44 86° N 22:46:01 10° ENE visible
25 Jul -3.5 00:16:04 10° WNW 00:19:21 67° N 00:21:07 25° E visible
25 Jul -1.8 01:52:37 10° WNW 01:53:44 19° W 01:53:44 19° W visible
25 Jul -3.4 23:23:51 10° W 23:27:07 65° N 23:30:21 10° E visible
